Weather History for Marysville, OH

Change the Weather History Date:

Saturday, February 16, 2013

  Actual Average (KDLZ) Record (KDLZ)
Temperature  
Mean Temperature 22 °F -  
Max Temperature 29 °F 38 °F 63 °F (1954)
Min Temperature 14 °F 18 °F -11 °F (1978)
Degree Days  
Heating Degree Days 43    
Moisture  
Dew Point 15 °F    
Average Humidity 75    
Maximum Humidity 91    
Minimum Humidity 53    
Precipitation  
Precipitation 0.00 in - - ()
Sea Level Pressure  
Sea Level Pressure 30.04 in    
Wind  
Wind Speed 6 mph (WNW)    
Max Wind Speed 20 mph    
Max Gust Speed 23 mph    
Visibility 9 miles    
Events      
Averages and records for this station are not official NWS values.
T = Trace of Precipitation, MM = Missing Value Source: NWS Daily Summary

Daily Weather History Graph

Daily Weather History Graph

Search for Another Location

Airport:

Trip Planner

Search our weather history database for the weather conditions in past years. The results will help you decide how hot, cold, wet, or windy it might be!

Date:

Astronomy

Feb. 16, 2013 Rise Set
Actual Time 7:24 AM EST 6:10 PM EST
Civil Twilight 6:57 AM EST 6:38 PM EST
Nautical Twilight 6:25 AM EST 7:10 PM EST
Astronomical Twilight 5:53 AM EST 7:41 PM EST
Moon 10:36 AM EST (2/16) 12:09 AM EST (2/16)
Length of Visible Light 11h 41m
Length of Day
10h 45m
Waxing Crescent, 39% of the Moon is Illuminated
Feb 16
Waxing Crescent
Feb 17
First Quarter
Feb 25
Full
Mar 4
Last Quarter
Mar 11
New

Hourly Weather History & Observations

Time (EST) Temp. Windchill Dew Point Humidity Pressure Visibility Wind Dir Wind Speed Gust Speed Precip Events Conditions
12:14 AM 24.4 °F 15.6 °F 15.8 °F 70% 30.10 in 10.0 mi NNW 8.1 mph - N/A   Clear
12:34 AM 23.7 °F 15.6 °F 15.6 °F 71% 30.10 in 10.0 mi NNW 6.9 mph - N/A   Clear
12:53 AM 23.4 °F 17.4 °F 15.4 °F 72% 30.10 in 10.0 mi North 4.6 mph - N/A   Clear
1:14 AM 22.6 °F 18.0 °F 15.3 °F 73% 30.10 in 10.0 mi NNW 3.5 mph - N/A   Clear
1:34 AM 22.1 °F - 15.4 °F 76% 30.10 in 10.0 mi Calm Calm - N/A   Clear
1:53 AM 22.1 °F - 15.4 °F 76% 30.10 in 10.0 mi Calm Calm - N/A   Clear
2:14 AM 21.6 °F - 15.4 °F 77% 30.09 in 10.0 mi Calm Calm - N/A   Clear
2:34 AM 21.2 °F - 15.4 °F 78% 30.08 in 10.0 mi Calm Calm - N/A   Clear
2:53 AM 20.3 °F 15.4 °F 15.3 °F 81% 30.08 in 10.0 mi NW 3.5 mph - N/A   Clear
3:14 AM 20.3 °F 13.8 °F 16.3 °F 85% 30.07 in 10.0 mi West 4.6 mph - N/A   Clear
3:34 AM 19.4 °F 12.8 °F 15.1 °F 83% 30.07 in 10.0 mi WNW 4.6 mph - N/A   Clear
3:53 AM 19.4 °F 12.8 °F 14.9 °F 83% 30.06 in 10.0 mi West 4.6 mph - N/A   Clear
4:14 AM 19.4 °F 12.8 °F 15.4 °F 85% 30.06 in 10.0 mi WNW 4.6 mph - N/A   Clear
4:34 AM 19.4 °F 14.3 °F 14.9 °F 83% 30.05 in 10.0 mi WNW 3.5 mph - N/A   Clear
4:53 AM 19.2 °F 14.1 °F 15.4 °F 85% 30.05 in 10.0 mi West 3.5 mph - N/A   Clear
5:14 AM 18.7 °F - 15.4 °F 87% 30.05 in 10.0 mi Calm Calm - N/A   Clear
5:34 AM 19.2 °F - 15.3 °F 85% 30.05 in 10.0 mi Calm Calm - N/A   Clear
5:53 AM 18.1 °F 12.9 °F 14.9 °F 87% 30.05 in 10.0 mi WSW 3.5 mph - N/A   Clear
6:14 AM 17.8 °F - 14.4 °F 86% 30.04 in 10.0 mi Calm Calm - N/A   Clear
6:34 AM 17.2 °F - 14.5 °F 89% 30.04 in 10.0 mi Calm Calm - N/A   Clear
7:14 AM 17.6 °F - 14.9 °F 89% 30.04 in 10.0 mi Calm Calm - N/A   Clear
7:34 AM 17.1 °F - 14.5 °F 90% 30.04 in 10.0 mi Calm Calm - N/A   Clear
7:53 AM 17.8 °F - 15.6 °F 91% 30.04 in 10.0 mi Calm Calm - N/A   Mostly Cloudy
8:14 AM 19.4 °F - 16.7 °F 89% 30.03 in 10.0 mi Calm Calm - N/A   Mostly Cloudy
8:34 AM 21.2 °F 16.4 °F 17.8 °F 87% 30.04 in 10.0 mi WSW 3.5 mph - N/A   Mostly Cloudy
8:53 AM 21.6 °F 15.3 °F 17.8 °F 85% 30.04 in 10.0 mi WSW 4.6 mph - N/A   Overcast
9:14 AM 22.1 °F 15.9 °F 17.6 °F 83% 30.04 in 10.0 mi SW 4.6 mph - N/A   Overcast
9:33 AM 23.4 °F 17.4 °F 18.3 °F 81% 30.03 in 10.0 mi SW 4.6 mph - N/A   Mostly Cloudy
9:54 AM 24.8 °F 16.9 °F 18.5 °F 77% 30.03 in 10.0 mi WSW 6.9 mph - N/A   Mostly Cloudy
10:14 AM 26.2 °F 17.8 °F 18.1 °F 71% 30.03 in 10.0 mi WSW 8.1 mph - N/A   Mostly Cloudy
10:33 AM 26.1 °F 19.4 °F 18.1 °F 72% 30.03 in 10.0 mi WSW 5.8 mph - N/A   Overcast
10:54 AM 26.8 °F 18.5 °F 18.1 °F 70% 30.03 in 10.0 mi West 8.1 mph - N/A   Overcast
11:14 AM 27.1 °F 19.7 °F 18.9 °F 71% 30.02 in 10.0 mi WSW 6.9 mph - N/A   Overcast
11:33 AM 27.3 °F 19.1 °F 18.5 °F 69% 30.02 in 10.0 mi West 8.1 mph - N/A   Overcast
11:54 AM 27.9 °F 19.1 °F 17.6 °F 65% 30.01 in 10.0 mi West 9.2 mph - N/A   Overcast
12:14 PM 27.5 °F 19.3 °F 16.2 °F 62% 30.00 in 10.0 mi West 8.1 mph - N/A   Overcast
12:33 PM 28.4 °F 18.0 °F 16.7 °F 62% 30.00 in 10.0 mi West 12.7 mph - N/A   Overcast
12:54 PM 26.4 °F 14.5 °F 20.5 °F 78% 30.00 in 1.5 mi West 15.0 mph 19.6 mph N/A   Overcast
1:13 PM 25.7 °F 19.0 °F 20.3 °F 80% 29.99 in 2.5 mi West 5.8 mph - N/A   Overcast
1:34 PM 26.6 °F 16.8 °F 17.8 °F 69% 29.98 in 10.0 mi WNW 10.4 mph - N/A   Overcast
1:54 PM 27.9 °F 15.9 °F 16.3 °F 62% 29.97 in 10.0 mi WNW 16.1 mph - N/A   Overcast
2:13 PM 29.1 °F 18.9 °F 14.9 °F 55% 29.97 in 10.0 mi West 12.7 mph - N/A   Mostly Cloudy
2:34 PM 27.3 °F 16.1 °F 15.8 °F 62% 29.97 in 10.0 mi WNW 13.8 mph - N/A   Mostly Cloudy
2:54 PM 27.1 °F 16.9 °F 14.9 °F 60% 29.97 in 10.0 mi WNW 11.5 mph - N/A   Overcast
3:13 PM 26.1 °F 15.0 °F 18.5 °F 73% 29.97 in 3.0 mi WNW 12.7 mph 19.6 mph N/A   Overcast
3:34 PM 25.5 °F 13.3 °F 17.6 °F 72% 29.98 in 7.0 mi WNW 15.0 mph 21.9 mph N/A   Overcast
3:54 PM 25.3 °F 13.6 °F 16.9 °F 70% 29.98 in 10.0 mi WNW 13.8 mph - N/A   Overcast
4:13 PM 25.2 °F 13.9 °F 16.7 °F 70% 29.98 in 3.0 mi WNW 12.7 mph - N/A   Overcast
4:34 PM 26.6 °F 13.1 °F 15.3 °F 62% 29.99 in 10.0 mi NW 19.6 mph 23.0 mph N/A   Overcast
4:54 PM 24.3 °F 12.2 °F 15.3 °F 69% 30.00 in 10.0 mi WNW 13.8 mph 20.7 mph N/A   Scattered Clouds
5:13 PM 23.2 °F 11.4 °F 14.5 °F 70% 30.00 in 10.0 mi WNW 12.7 mph 20.7 mph N/A   Mostly Cloudy
5:34 PM 22.1 °F 8.5 °F 15.4 °F 76% 30.01 in 5.0 mi NW 16.1 mph 21.9 mph N/A   Mostly Cloudy
5:53 PM 21.2 °F 8.3 °F 13.6 °F 73% 30.01 in 7.0 mi NW 13.8 mph 21.9 mph N/A   Overcast
6:14 PM 20.8 °F 9.0 °F 14.9 °F 78% 30.02 in 4.0 mi WNW 11.5 mph - N/A   Overcast
6:34 PM 21.0 °F 11.4 °F 14.0 °F 74% 30.02 in 10.0 mi NW 8.1 mph - N/A   Overcast
6:53 PM 20.3 °F 8.3 °F 11.8 °F 70% 30.03 in 10.0 mi WNW 11.5 mph - N/A   Scattered Clouds
7:14 PM 20.7 °F 11.0 °F 13.3 °F 73% 30.03 in 5.0 mi NW 8.1 mph - N/A   Mostly Cloudy
7:34 PM 20.1 °F 9.5 °F 15.3 °F 81% 30.04 in 4.0 mi NW 9.2 mph - N/A   Overcast
7:53 PM 19.6 °F 8.1 °F 13.5 °F 77% 30.04 in 10.0 mi NW 10.4 mph 19.6 mph N/A   Mostly Cloudy
8:14 PM 19.6 °F 6.8 °F 14.0 °F 79% 30.04 in 5.0 mi NNW 12.7 mph 17.3 mph N/A   Overcast
8:34 PM 18.5 °F 8.4 °F 14.0 °F 83% 30.05 in 2.5 mi NNW 8.1 mph - N/A   Overcast
8:53 PM 19.0 °F 8.2 °F 13.1 °F 78% 30.05 in 10.0 mi NNW 9.2 mph - N/A   Overcast
9:14 PM 18.5 °F 4.3 °F 11.8 °F 75% 30.05 in 4.0 mi NNW 15.0 mph 19.6 mph N/A   Overcast
9:34 PM 18.0 °F 4.2 °F 10.4 °F 72% 30.06 in 7.0 mi NNW 13.8 mph 18.4 mph N/A   Overcast
9:53 PM 18.0 °F 6.9 °F 11.3 °F 75% 30.06 in 7.0 mi NNW 9.2 mph - N/A   Overcast
10:14 PM 17.2 °F 4.5 °F 11.1 °F 77% 30.06 in 2.5 mi NNW 11.5 mph - N/A   Overcast
10:34 PM 16.7 °F 4.5 °F 8.4 °F 70% 30.06 in 10.0 mi NW 10.4 mph - N/A   Overcast
10:53 PM 16.3 °F 4.1 °F 5.5 °F 63% 30.05 in 10.0 mi NW 10.4 mph 17.3 mph N/A   Mostly Cloudy
11:14 PM 15.8 °F 5.1 °F 1.8 °F 54% 30.05 in 10.0 mi NW 8.1 mph - N/A   Scattered Clouds
11:34 PM 15.3 °F 4.4 °F 0.9 °F 53% 30.05 in 10.0 mi NW 8.1 mph - N/A   Clear
11:53 PM 14.9 °F 3.1 °F 0.7 °F 53% 30.05 in 10.0 mi NW 9.2 mph - N/A   Clear